| time (UTC) | temp C | wind direction | speed KPH | gust KPH | rain 1hr cm | rain 24hr cm | rain mn cm | humidity % | barometer mb |
| 20260505101715 | 18 | 225 | 0.0 | 4.8 | 0.00 | 0.00 | 0.00 | 59 | 1018.0 |
| 20260505100715 | 18 | 135 | 1.6 | 6.4 | 0.00 | 0.00 | 0.00 | 58 | 1017.7 |
| 20260505095716 | 18 | 180 | 0.0 | 9.7 | 0.00 | 0.00 | 0.00 | 55 | 1017.7 |
| 20260505094717 | 19 | 180 | 6.4 | 22.5 | 0.00 | 0.00 | 0.00 | 55 | 1017.7 |
| 20260505093717 | 20 | 225 | 3.2 | 14.5 | 0.00 | 0.00 | 0.00 | 53 | 1017.8 |
| 20260505092717 | 20 | 180 | 3.2 | 14.5 | 0.00 | 0.00 | 0.00 | 52 | 1017.7 |
| 20260505091718 | 20 | 180 | 6.4 | 17.7 | 0.00 | 0.00 | 0.00 | 52 | 1017.9 |
| 20260505090718 | 20 | 225 | 6.4 | 17.7 | 0.00 | 0.00 | 0.00 | 51 | 1017.6 |
| 20260505085719 | 20 | 180 | 9.7 | 24.1 | 0.00 | 0.00 | 0.00 | 51 | 1017.6 |
| 20260505084719 | 21 | 135 | 6.4 | 17.7 | 0.00 | 0.00 | 0.00 | 49 | 1017.5 |
| 20260505083720 | 21 | 180 | 9.7 | 20.9 | 0.00 | 0.00 | 0.00 | 49 | 1017.6 |
| 20260505082720 | 21 | 180 | 11.3 | 17.7 | 0.00 | 0.00 | 0.00 | 46 | 1017.4 |
| 20260505081720 | 22 | 180 | 9.7 | 17.7 | 0.00 | 0.00 | 0.00 | 44 | 1017.2 |
| 20260505080720 | 22 | 180 | 6.4 | 17.7 | 0.00 | 0.00 | 0.00 | 42 | 1017.1 |
| 20260505075720 | 22 | 180 | 8.0 | 17.7 | 0.00 | 0.00 | 0.00 | 44 | 1017.0 |
| 20260505074721 | 23 | 180 | 6.4 | 19.3 | 0.00 | 0.00 | 0.00 | 41 | 1016.9 |
| 20260505073721 | 23 | 180 | 8.0 | 19.3 | 0.00 | 0.00 | 0.00 | 42 | 1016.9 |
| 20260505072721 | 23 | 180 | 6.4 | 12.9 | 0.00 | 0.00 | 0.00 | 38 | 1017.0 |
| 20260505071721 | 23 | 180 | 6.4 | 14.5 | 0.00 | 0.00 | 0.00 | 39 | 1016.8 |
| 20260505070721 | 24 | 180 | 6.4 | 14.5 | 0.00 | 0.00 | 0.00 | 37 | 1016.9 |
| 20260505065721 | 25 | 180 | 8.0 | 12.9 | 0.00 | 0.00 | 0.00 | 39 | 1016.9 |
| 20260505064721 | 25 | 180 | 9.7 | 17.7 | 0.00 | 0.00 | 0.00 | 37 | 1016.9 |
| 20260505063722 | 25 | 180 | 6.4 | 12.9 | 0.00 | 0.00 | 0.00 | 38 | 1016.9 |
| 20260505062722 | 25 | 203 | 8.0 | 16.1 | 0.00 | 0.00 | 0.00 | 39 | 1016.8 |
| 20260505061722 | 25 | 180 | 4.8 | 12.9 | 0.00 | 0.00 | 0.00 | 37 | 1016.8 |
| 20260505060722 | 25 | 180 | 9.7 | 17.7 | 0.00 | 0.00 | 0.00 | 37 | 1016.9 |
| 20260505055722 | 26 | 180 | 8.0 | 17.7 | 0.00 | 0.00 | 0.00 | 37 | 1017.0 |
| 20260505054722 | 25 | 180 | 1.6 | 6.4 | 0.00 | 0.00 | 0.00 | 37 | 1017.1 |
| 20260505053722 | 25 | 270 | 0.0 | 14.5 | 0.00 | 0.00 | 0.00 | 35 | 1017.3 |
| 20260505052722 | 26 | 0 | 1.6 | 8.0 | 0.00 | 0.00 | 0.00 | 34 | 1017.3 |
| 20260505051722 | 26 | 0 | 4.8 | 8.0 | 0.00 | 0.00 | 0.00 | 34 | 1017.5 |
| 20260505050722 | 28 | 315 | 0.0 | 8.0 | 0.00 | 0.00 | 0.00 | 31 | 1017.5 |
| 20260505041719 | 26 | 225 | 0.0 | 8.0 | 0.00 | 0.00 | 0.00 | 32 | 1018.0 |
| 20260505040719 | 27 | 315 | 1.6 | 6.4 | 0.00 | 0.00 | 0.00 | 35 | 1018.2 |
| 20260505035718 | 26 | 315 | 1.6 | 6.4 | 0.00 | 0.00 | 0.00 | 34 | 1018.4 |
| 20260505034718 | 27 | 270 | 4.8 | 8.0 | 0.00 | 0.00 | 0.00 | 35 | 1018.4 |
| 20260505033718 | 27 | 0 | 6.4 | 12.9 | 0.00 | 0.00 | 0.00 | 31 | 1018.5 |
| 20260505032717 | 27 | 0 | 1.6 | 4.8 | 0.00 | 0.00 | 0.00 | 40 | 1018.8 |
| 20260505031717 | 25 | 0 | 3.2 | 6.4 | 0.00 | 0.00 | 0.00 | 32 | 1018.9 |
| 20260505030717 | 25 | 315 | 3.2 | 9.7 | 0.00 | 0.00 | 0.00 | 35 | 1019.1 |
| 20260505025717 | 26 | 315 | 3.2 | 4.8 | 0.00 | 0.00 | 0.00 | 37 | 1019.2 |
| 20260505024716 | 26 | 270 | 0.0 | 4.8 | 0.00 | 0.00 | 0.00 | 34 | 1019.4 |
| 20260505023716 | 24 | 0 | 3.2 | 12.9 | 0.00 | 0.00 | 0.00 | 34 | 1019.6 |
| 20260505022716 | 25 | 315 | 3.2 | 6.4 | 0.00 | 0.00 | 0.00 | 36 | 1019.6 |
| 20260505021716 | 24 | 90 | 0.0 | 4.8 | 0.00 | 0.00 | 0.00 | 34 | 1019.8 |
| 20260505020716 | 23 | 0 | 3.2 | 6.4 | 0.00 | 0.00 | 0.00 | 36 | 1019.8 |
| 20260505015716 | 23 | 0 | 0.0 | 8.0 | 0.00 | 0.00 | 0.00 | 37 | 1019.9 |
| 20260505014716 | 23 | 0 | 0.0 | 4.8 | 0.00 | 0.00 | 0.00 | 44 | 1020.0 |
| 20260505013716 | 23 | 270 | 0.0 | 1.6 | 0.00 | 0.00 | 0.00 | 41 | 1020.1 |
| 20260505012717 | 21 | 0 | 3.2 | 6.4 | 0.00 | 0.00 | 0.00 | 38 | 1020.1 |
| 20260505011717 | 21 | 338 | 1.6 | 4.8 | 0.00 | 0.00 | 0.00 | 43 | 1020.3 |
| 20260505010717 | 21 | 315 | 1.6 | 4.8 | 0.00 | 0.00 | 0.00 | 48 | 1020.3 |
| 20260505005717 | 20 | 315 | 0.0 | 3.2 | 0.00 | 0.00 | 0.00 | 50 | 1020.3 |
| 20260505004718 | 19 | 90 | 0.0 | 3.2 | 0.00 | 0.00 | 0.00 | 50 | 1020.4 |
| 20260505003718 | 20 | 0 | 0.0 | 3.2 | 0.00 | 0.00 | 0.00 | 50 | 1020.4 |
| 20260505002718 | 20 | 180 | 0.0 | 3.2 | 0.00 | 0.00 | 0.00 | 53 | 1020.4 |
| 20260505001719 | 18 | 315 | 3.2 | 4.8 | 0.00 | 0.00 | 0.00 | 55 | 1020.3 |
| 20260505000719 | 17 | 315 | 0.0 | 4.8 | 0.00 | 0.00 | 0.00 | 60 | 1020.4 |
| 20260504235719 | 16 | 225 | 0.0 | 4.8 | 0.00 | 0.00 | 0.00 | 65 | 1020.4 |
| 20260504234720 | 16 | 338 | 1.6 | 4.8 | 0.00 | 0.00 | 0.00 | 63 | 1020.6 |
| 20260504233720 | 16 | 338 | 3.2 | 4.8 | 0.00 | 0.00 | 0.00 | 65 | 1020.7 |
| 20260504232721 | 16 | 315 | 1.6 | 3.2 | 0.00 | 0.00 | 0.00 | 67 | 1020.8 |
| 20260504231721 | 15 | 0 | 3.2 | 4.8 | 0.00 | 0.00 | 0.00 | 69 | 1020.8 |
| 20260504230721 | 14 | 315 | 1.6 | 4.8 | 0.00 | 0.00 | 0.00 | 73 | 1020.9 |
| 20260504225722 | 14 | 315 | 3.2 | 4.8 | 0.00 | 0.00 | 0.00 | 73 | 1020.7 |
| 20260504224722 | 14 | 338 | 1.6 | 3.2 | 0.00 | 0.00 | 0.00 | 72 | 1020.7 |
| 20260504223723 | 13 | 315 | 0.0 | 3.2 | 0.00 | 0.00 | 0.00 | 76 | 1020.6 |
| 20260504222723 | 12 | 0 | 0.0 | 3.2 | 0.00 | 0.00 | 0.00 | 77 | 1020.7 |
| 20260504221724 | 12 | 315 | 0.0 | 3.2 | 0.00 | 0.00 | 0.00 | 78 | 1020.7 |
| 20260504220725 | 12 | 0 | 0.0 | 1.6 | 0.00 | 0.00 | 0.00 | 78 | 1020.6 |
| 20260504215725 | 13 | 0 | 0.0 | 1.6 | 0.00 | 0.00 | 0.00 | 73 | 1020.4 |
| 20260504214726 | 12 | 180 | 0.0 | 3.2 | 0.00 | 0.00 | 0.00 | 81 | 1020.5 |
| 20260504213727 | 10 | 135 | 0.0 | 1.6 | 0.00 | 0.00 | 0.00 | 83 | 1020.4 |
| 20260504212728 | 10 | 90 | 0.0 | 0.0 | 0.00 | 0.00 | 0.00 | 82 | 1020.4 |
| 20260504211729 | 9 | 180 | 0.0 | 0.0 | 0.00 | 0.00 | 0.00 | 90 | 1020.4 |
| 20260504210730 | 8 | 135 | 0.0 | 1.6 | 0.00 | 0.00 | 0.00 | 89 | 1020.4 |
| 20260504205731 | 7 | 45 | 0.0 | 0.0 | 0.00 | 0.00 | 0.00 | 88 | 1020.5 |
| 20260504204732 | 7 | 315 | 0.0 | 4.8 | 0.00 | 0.00 | 0.00 | 87 | 1020.3 |
| 20260504203734 | 8 | 315 | 0.0 | 1.6 | 0.00 | 0.00 | 0.00 | 87 | 1020.0 |
| 20260504202735 | 7 | 180 | 0.0 | 3.2 | 0.00 | 0.00 | 0.00 | 87 | 1019.9 |
| 20260504201736 | 7 | 315 | 0.0 | 1.6 | 0.00 | 0.00 | 0.00 | 87 | 1019.7 |
| 20260504200737 | 7 | 45 | 0.0 | 0.0 | 0.00 | 0.00 | 0.00 | 87 | 1019.7 |
| 20260504195738 | 8 | 90 | 0.0 | 1.6 | 0.00 | 0.00 | 0.00 | 87 | 1019.8 |
| 20260504194739 | 8 | 45 | 0.0 | 0.0 | 0.00 | 0.00 | 0.00 | 85 | 1019.7 |
| 20260504193740 | 8 | 135 | 1.6 | 3.2 | 0.00 | 0.00 | 0.00 | 86 | 1019.7 |
| 20260504192741 | 8 | 225 | 0.0 | 1.6 | 0.00 | 0.00 | 0.00 | 87 | 1019.6 |
| 20260504191742 | 8 | 135 | 0.0 | 1.6 | 0.00 | 0.00 | 0.00 | 87 | 1019.5 |
| 20260504190743 | 8 | 180 | 0.0 | 1.6 | 0.00 | 0.00 | 0.00 | 88 | 1019.5 |
| 20260504185744 | 8 | 180 | 0.0 | 3.2 | 0.00 | 0.00 | 0.00 | 88 | 1019.3 |
| 20260504184745 | 8 | 180 | 0.0 | 3.2 | 0.00 | 0.00 | 0.00 | 88 | 1019.4 |
| 20260504183746 | 9 | 315 | 0.0 | 0.0 | 0.00 | 0.00 | 0.00 | 88 | 1019.2 |
| 20260504182747 | 9 | 270 | 0.0 | 0.0 | 0.00 | 0.00 | 0.00 | 88 | 1019.0 |
| 20260504181748 | 9 | 225 | 0.0 | 3.2 | 0.00 | 0.00 | 0.00 | 88 | 1019.0 |
| 20260504180749 | 9 | 180 | 0.0 | 1.6 | 0.00 | 0.00 | 0.00 | 88 | 1018.9 |
| 20260504175750 | 9 | 315 | 0.0 | 1.6 | 0.00 | 0.00 | 0.00 | 88 | 1018.8 |
| 20260504174751 | 10 | 315 | 0.0 | 0.0 | 0.00 | 0.00 | 0.00 | 87 | 1018.8 |
| 20260504173752 | 10 | 0 | 0.0 | 0.0 | 0.00 | 0.00 | 0.00 | 87 | 1018.8 |
| 20260504172753 | 10 | 180 | 0.0 | 3.2 | 0.00 | 0.00 | 0.00 | 86 | 1018.8 |
| 20260504171754 | 10 | 180 | 3.2 | 3.2 | 0.00 | 0.00 | 0.00 | 85 | 1018.9 |
| 20260504170755 | 10 | 180 | 0.0 | 0.0 | 0.00 | 0.00 | 0.00 | 85 | 1018.9 |
| 20260504150806 | 11 | 180 | 0.0 | 3.2 | 0.00 | 0.00 | 0.00 | 82 | 1018.6 |
| 20260504140811 | 12 | 180 | 1.6 | 4.8 | 0.00 | 0.00 | 0.00 | 77 | 1018.0 |
| 20260504130816 | 13 | 180 | 0.0 | 3.2 | 0.00 | 0.00 | 0.00 | 73 | 1017.9 |